Weather History for Beckley, WV

Change the Weather History Date:

Friday, January 27, 2012

  Actual Average Record
Temperature  
Mean Temperature 47 °F 32 °F  
Max Temperature 61 °F 40 °F 69 °F (1916)
Min Temperature 33 °F 23 °F -12 °F (1936)
Degree Days  
Heating Degree Days 18 34  
Month to date heating degree days 767 918  
Since 1 July heating degree days 2513 3011  
Cooling Degree Days 0 0  
Month to date cooling degree days 0 0  
Year to date cooling degree days 0 0  
Moisture  
Dew Point 40 °F    
Average Humidity 81    
Maximum Humidity 93    
Minimum Humidity 69    
Precipitation  
Precipitation 0.54 in 0.09 in 1.19 in (1998)
Month to date precipitation 3.35 2.45  
Year to date precipitation 3.35 2.45  
Snow  
Snow 0.00 in - - ()
Month to date snowfall 11.0  
Since 1 September snowfall 18.8  
Snow Depth 0.00 in    
Sea Level Pressure  
Sea Level Pressure 29.74 in    
Wind  
Wind Speed 11 mph (West)    
Max Wind Speed 38 mph    
Max Gust Speed 63 mph    
Visibility 8 miles    
Events Rain    
T = Trace of Precipitation, MM = Missing Value Source: NWS Daily Summary

Daily Weather History Graph

Daily Weather History Graph

Search for Another Location

Airport:

Trip Planner

Search our weather history database for the weather conditions in past years. The results will help you decide how hot, cold, wet, or windy it might be!

Date:

Astronomy

Jan. 27, 2012 Rise Set
Actual Time 7:32 AM EST 5:41 PM EST
Civil Twilight 7:04 AM EST 6:09 PM EST
Nautical Twilight 6:33 AM EST 6:41 PM EST
Astronomical Twilight 6:02 AM EST 7:12 PM EST
Moon 9:32 AM EST (1/27) 10:24 PM EST (1/27)
Length of Visible Light 11h 05m
Length of Day
10h 09m
Waxing Crescent, 19% of the Moon is Illuminated
Jan 27
Waxing Crescent
Jan 30
First Quarter
Feb 7
Full
Feb 14
Last Quarter
Feb 21
New

Hourly Weather History & Observations

Time (EST) Temp. Windchill Dew Point Humidity Pressure Visibility Wind Dir Wind Speed Gust Speed Precip Events Conditions
12:51 AM 60.1 °F - 51.1 °F 72% 29.49 in 10.0 mi South 12.7 mph 24.2 mph 0.00 in   Scattered Clouds
1:51 AM 60.1 °F - 50.0 °F 69% 29.45 in 10.0 mi South 13.8 mph 21.9 mph N/A   Partly Cloudy
2:22 AM 55.4 °F - 48.2 °F 77% 29.56 in 2.5 mi WSW 25.3 mph 63.3 mph 0.00 in Rain Rain
2:27 AM 53.6 °F - 48.2 °F 82% 29.55 in 1.5 mi WSW 21.9 mph 63.3 mph 0.12 in Rain Heavy Rain
2:30 AM 53.6 °F - 48.2 °F 82% 29.55 in 1.8 mi WSW 19.6 mph 42.6 mph 0.15 in Rain Heavy Rain
2:34 AM 53.6 °F - 50.0 °F 88% 29.56 in 3.0 mi WSW 18.4 mph 33.4 mph 0.17 in Rain Rain
2:51 AM 54.0 °F - 50.0 °F 86% 29.52 in 6.0 mi SW 16.1 mph 23.0 mph 0.20 in Rain Light Rain
3:40 AM 53.6 °F - 50.0 °F 88% 29.55 in 10.0 mi SW 12.7 mph 21.9 mph 0.03 in Rain Light Rain
3:51 AM 53.1 °F - 50.0 °F 89% 29.50 in 10.0 mi SW 6.9 mph 17.3 mph 0.03 in   Overcast
4:18 AM 53.6 °F - 50.0 °F 88% 29.56 in 5.0 mi WSW 11.5 mph 18.4 mph 0.03 in Rain Rain
4:39 AM 51.8 °F - 48.2 °F 88% 29.56 in 7.0 mi WSW 12.7 mph 23.0 mph N/A Rain Light Rain
4:45 AM 51.8 °F - 48.2 °F 88% 29.56 in 9.0 mi WSW 8.1 mph - 0.11 in Rain Light Rain
4:46 AM 52.0 °F - 48.9 °F 89% 29.53 in 9.0 mi WSW 8.1 mph - 0.11 in Rain Light Rain
5:15 AM 51.8 °F - 50.0 °F 94% 29.58 in 3.0 mi West 8.1 mph - 0.05 in Rain Heavy Rain
5:21 AM 51.8 °F - 48.2 °F 88% 29.58 in 2.5 mi West 13.8 mph 18.4 mph 0.08 in Rain Heavy Rain
5:29 AM 51.8 °F - 46.4 °F 82% 29.58 in 4.0 mi West 15.0 mph 28.8 mph 0.12 in Rain Rain
5:39 AM 51.8 °F - 46.4 °F 82% 29.58 in 8.0 mi WSW 10.4 mph - 0.13 in Rain Light Rain
5:51 AM 50.0 °F - 48.0 °F 93% 29.55 in 8.0 mi WSW 5.8 mph - 0.14 in Rain Light Rain
6:03 AM 50.0 °F - 48.2 °F 94% 29.59 in 10.0 mi WNW 8.1 mph - 0.00 in Rain Light Rain
6:10 AM 50.0 °F - 46.4 °F 87% 29.59 in 5.0 mi West 18.4 mph 26.5 mph 0.01 in Rain Heavy Rain
6:25 AM 50.0 °F - 46.4 °F 87% 29.60 in 9.0 mi West 13.8 mph 25.3 mph 0.04 in Rain Light Rain
6:51 AM 48.9 °F - 46.0 °F 90% 29.59 in 9.0 mi West 11.5 mph - 0.05 in Rain Light Rain
7:00 AM 48.2 °F - 46.4 °F 93% 29.61 in 10.0 mi WNW 12.7 mph 19.6 mph 0.01 in Rain Light Rain
7:51 AM 46.9 °F - 42.1 °F 83% 29.64 in 10.0 mi WNW 15.0 mph 25.3 mph 0.01 in   Overcast
8:51 AM 45.0 °F 38.2 °F 39.9 °F 82% 29.69 in 10.0 mi WNW 15.0 mph 24.2 mph N/A   Overcast
9:20 AM 44.6 °F 37.4 °F 39.2 °F 81% 29.71 in 10.0 mi WNW 16.1 mph 23.0 mph N/A   Overcast
9:30 AM 44.6 °F 38.1 °F 39.2 °F 81% 29.72 in 10.0 mi WNW 13.8 mph 20.7 mph 0.00 in Rain Light Rain
9:44 AM 42.8 °F 36.6 °F 39.2 °F 87% 29.72 in 10.0 mi WNW 11.5 mph 20.7 mph N/A   Overcast
9:51 AM 43.0 °F 36.0 °F 39.0 °F 86% 29.72 in 10.0 mi WNW 13.8 mph 20.7 mph 0.00 in Rain Light Rain
10:51 AM 41.0 °F 33.9 °F 37.0 °F 86% 29.77 in 10.0 mi WNW 12.7 mph 19.6 mph 0.00 in   Overcast
11:51 AM 39.2 °F 30.5 °F 35.6 °F 87% 29.80 in 10.0 mi West 16.1 mph 21.9 mph N/A   Overcast
12:03 PM 39.2 °F 30.8 °F 35.6 °F 87% 29.80 in 8.0 mi WNW 15.0 mph 24.2 mph N/A   Overcast
12:17 PM 39.2 °F 32.0 °F 35.6 °F 87% 29.80 in 6.0 mi West 11.5 mph 20.7 mph N/A   Overcast
12:51 PM 37.9 °F 27.9 °F 34.0 °F 86% 29.81 in 10.0 mi West 19.6 mph 24.2 mph 0.00 in   Overcast
1:07 PM 37.4 °F 28.9 °F 33.8 °F 87% 29.82 in 10.0 mi WNW 13.8 mph 25.3 mph N/A   Overcast
1:51 PM 37.0 °F 28.9 °F 33.1 °F 86% 29.83 in 10.0 mi WNW 12.7 mph 21.9 mph N/A   Overcast
2:51 PM 37.9 °F 32.1 °F 34.0 °F 86% 29.84 in 9.0 mi WNW 8.1 mph - 0.00 in Rain Light Rain
3:26 PM 37.4 °F 27.5 °F 33.8 °F 87% 29.85 in 10.0 mi West 18.4 mph 24.2 mph 0.00 in   Overcast
3:51 PM 37.0 °F 27.7 °F 32.0 °F 82% 29.89 in 10.0 mi WNW 16.1 mph - 0.00 in   Overcast
4:11 PM 37.4 °F 28.5 °F 32.0 °F 81% 29.90 in 10.0 mi West 15.0 mph 20.7 mph N/A   Overcast
4:43 PM 37.4 °F 29.3 °F 30.2 °F 75% 29.92 in 10.0 mi WNW 12.7 mph 20.7 mph N/A   Overcast
4:51 PM 37.0 °F 28.5 °F 30.9 °F 79% 29.94 in 10.0 mi NW 13.8 mph 19.6 mph N/A   Overcast
5:07 PM 35.6 °F 27.1 °F 30.2 °F 81% 29.94 in 10.0 mi WNW 12.7 mph - N/A   Overcast
5:51 PM 36.0 °F 28.0 °F 30.0 °F 79% 30.00 in 10.0 mi WNW 11.5 mph 21.9 mph N/A   Overcast
5:59 PM 35.6 °F 28.0 °F 30.2 °F 81% 29.98 in 10.0 mi WNW 10.4 mph 20.7 mph N/A   Overcast
6:32 PM 35.6 °F 28.6 °F 30.2 °F 81% 30.01 in 10.0 mi WNW 9.2 mph - N/A   Overcast
6:51 PM 35.1 °F 26.4 °F 30.9 °F 85% 30.05 in 10.0 mi WNW 12.7 mph - N/A   Overcast
7:09 PM 35.6 °F 28.0 °F 30.2 °F 81% 30.02 in 10.0 mi WNW 10.4 mph 19.6 mph N/A   Overcast
7:51 PM 36.0 °F 28.0 °F 28.9 °F 76% 30.07 in 10.0 mi West 11.5 mph - N/A   Overcast
8:51 PM 36.0 °F 33.3 °F 28.9 °F 76% 30.07 in 10.0 mi WNW 3.5 mph - N/A   Overcast
9:51 PM 35.1 °F 32.2 °F 30.0 °F 82% 30.08 in 10.0 mi WNW 3.5 mph - N/A   Overcast
10:51 PM 35.1 °F - 30.0 °F 82% 30.07 in 10.0 mi Calm Calm - N/A   Overcast
11:51 PM 34.0 °F 29.8 °F 28.9 °F 82% 30.06 in 10.0 mi West 4.6 mph - N/A   Overcast